Flag Weather past 2 weeks in Medina, Saudi Arabia

Now
63 °F

Clear.


Feels Like: 63 °F
Forecast: 55 / 74 °F
Wind: 7 mph from West

Location: Madinah

Current Time: Nov 25, 2014 at 5:02:30 AM

Latest Report: Nov 25, 2014 at 4:00 AM


Visibility: 10 mi

Pressure: 29.98 "Hg

Humidity: 45%

Dew point: 41 °F

Location of MedinaLocation

Historic Weather in Medina — Graph

°F

Medina temperature yesterday

Maximum temperature yesterday: 79 °F (at 3:00 PM)
Minimum temperature yesterday: 63 °F (at 7:00 AM)
Average temperature yesterday: 71 °F

Past Weeks' High & Low Weather Summary

 TemperatureHumidityPressure
High90 °F (Nov 14, 3:00 PM)100% (Nov 23, 4:00 AM)30.24 "Hg (Nov 23, 4:00 AM)
Low61 °F (Nov 12, 7:00 AM)5% (Nov 14, 3:00 PM)29.89 "Hg (Nov 24, 1:00 PM)
Average75 °F33%30.04 "Hg
* Reported Nov 10 5:00 AM — Nov 25 4:00 AM, Medina, Weather by CustomWeather, © 2014

Note: Actual official high and low records may vary slightly from our data, if they occured in-between our weather recording intervals... More about our weather records

Advertising

Medina weather history for previous 24 hours

 ConditionsComfort  
Time TempWeatherWind HumidityBarometerVisibility
4:00 AM
Nov 25
63 °FClear.7 mph45%29.98 "Hg10 mi
3:00 AM64 °FClear.9 mph46%29.98 "Hg10 mi
2:00 AM64 °FPassing clouds.12 mph46%29.98 "HgN/A
1:00 AM66 °FPassing clouds.14 mph43%29.98 "HgN/A
12:00 AM68 °FClear.16 mph40%29.98 "Hg10 mi
10:00 PM
Nov 24
70 °FPassing clouds.15 mph43%29.95 "HgN/A
8:00 PM72 °FPassing clouds.10 mph36%29.95 "HgN/A
7:00 PM73 °FMild.12 mph33%29.92 "HgN/A
6:00 PM75 °FPassing clouds.17 mph31%29.92 "HgN/A
5:00 PM77 °FPartly sunny.20 mph28%29.89 "HgN/A
4:00 PM79 °FPartly sunny.25 mph26%29.89 "HgN/A
3:00 PM79 °FScattered clouds.21 mph26%29.89 "HgN/A
2:00 PM77 °FScattered clouds.12 mph30%29.89 "HgN/A
1:00 PM77 °FScattered clouds.14 mph32%29.89 "HgN/A
12:00 PM77 °FPassing clouds.12 mph32%29.95 "Hg6 mi
11:00 AM73 °FPassing clouds.8 mph38%29.98 "Hg5 mi
10:00 AM73 °FPassing clouds.No wind38%29.98 "Hg5 mi
9:00 AM68 °FSunny.No wind53%29.98 "Hg5 mi
8:00 AM64 °FClear.No wind64%29.98 "Hg5 mi
7:00 AM63 °FClear.No wind68%29.95 "Hg5 mi
6:00 AM64 °FClear.5 mph60%29.95 "Hg10 mi
5:00 AM64 °FClear.No wind60%29.92 "Hg10 mi
Weather by CustomWeather, © 2014

See weather overviewHow to use our weather pages